Location: Kalberh�ni
(46.4610°N, 7.2453°E)
Time: 04:39:25
(UTC+00:00)

Cosmos 1802 Rocket - Pass Details

Date: 26 October 2021
Orbit: 955 x 1010 km, 82.9° (Epoch: 05 December)

Event Time Altitude Azimuth Distance (km) Brightness Sun altitude
Rises 21:12:32 0° 253° (WSW) 3,629 7.3 -47.6°
Reaches altitude 10° 21:17:23 10° 287° (WNW) 2,692 6.7 -48.2°
Maximum altitude 21:19:05 11° 303° (WNW) 2,614 6.7 -48.4°
Drops below altitude 10° 21:20:48 10° 320° (NW) 2,701 6.8 -48.6°
Sets 21:25:43 0° 354° (N) 3,663 7.5 -49.2°
